Regional Weather Roundup
Issued by NWS

Home | Current Version | Previous Version | Text Only | Print | Product List | Glossary Off
Versions: 1 2 3 4 5 6 7 8 9 10 11 12 13 14 15 16 17 18 19 20 21 22 23 24 25 26 27 28 29 30 31 32 33 34 35 36 37 38 39 40 41 42 43 44 45 46 47 48 49 50

000
ASUS45 KCYS 270210
RWRWY

WYOMING REGIONAL WEATHER ROUNDUP
NATIONAL WEATHER SERVICE CHEYENNE WY
800 PM MDT SUN APR 26 2015

NOTE:  "FAIR" INDICATES FEW OR NO CLOUDS BELOW 12,000 FEET
WITH NO SIGNIFICANT WEATHER AND/OR OBSTRUCTIONS TO VISIBILITY.

WYZ001-270300-
YELLOWSTONE NATIONAL PARK

CITY           SKY/WX    TMP DP  RH WIND       PRES   REMARKS
LK YELLOWSTONE   N/A     34  31  88 CALM      30.12R
W YELLOWSTONE  NOT AVBL

$$
WYZ002>013-054>058-071-098>099-270300-
NORTHERN WYOMING

CITY           SKY/WX    TMP DP  RH WIND       PRES   REMARKS
JACKSON        LGT RAIN  41  36  81 W6        30.07R
CODY           CLOUDY    36  32  87 N16       30.15R WCI  26
GREYBULL       CLOUDY    43  33  68 NW20      30.11R
WORLAND        CLOUDY    44  38  79 N13       30.10R
SHERIDAN       CLOUDY    39  35  86 N10       30.17R WCI  32
BUFFALO        CLOUDY    38  36  92 N14       30.13R WCI  30
GILLETTE       CLOUDY    37  36  96 N16       30.12R FOG     WCI  28
HULETT         DRIZZLE   43  41  93 N7        30.10R
NEWCASTLE      CLOUDY    45  43  93 CALM      30.09R

$$
WYZ014>020-022>026-101>103-270300-
CENTRAL WYOMING

CITY           SKY/WX    TMP DP  RH WIND       PRES   REMARKS
BIG PINEY      CLOUDY    41  30  65 N23       30.04R
PINEDALE       DRIZZLE   37  36  93 NE3       30.05R
DUBOIS         CLOUDY    36  32  87 SE7       30.07R WCI  30
LANDER         CLOUDY    42  37  82 NE6       30.06R
RIVERTON       CLOUDY    42  36  79 N9        30.08R
CASPER         LGT SNOW  36  34  92 N15       30.08R FOG     WCI  27
DOUGLAS        LGT RAIN  44  41  89 SE13      30.06R

$$
WYZ021-027>030-104>119-270300-
SOUTHERN WYOMING

CITY           SKY/WX    TMP DP  RH WIND       PRES   REMARKS
EVANSTON       CLOUDY    37  31  78 N13       30.09R WCI  29
KEMMERER       CLOUDY    36  30  80 NW21G28   30.06R WCI  24
FORT BRIDGER   CLOUDY    39  32  75 NW14G29   30.09R WCI  31
ROCK SPRINGS   LGT RAIN  39  36  89 NE13      30.03R WCI  31
DIXON          CLOUDY    41  37  85 N10       29.99R
RAWLINS        CLOUDY    38  33  82 N13G22    30.00R WCI  30
SARATOGA       DRIZZLE   43  39  87 SE3       29.96R
LARAMIE        CLOUDY    39  33  79 SE9       30.00R WCI  33
CHEYENNE       CLOUDY    38  37  97 E12       30.03R FOG     WCI  30
TORRINGTON     LGT RAIN  44  41  89 SE8       30.05R
PINE BLUFFS    LGT RAIN  39  37  93 E10       30.04R WCI  32

$$


USA.gov is the U.S. government's official web portal to all federal, state and local government web resources and services.